Location: Beuvrequen
(50.8014°N, 1.6652°E)
Time: 04:00:05
(UTC+00:00)

Cosmos 2123 Rocket - Pass Details

Date: 16 October 2021
Orbit: 961 x 992 km, 82.9° (Epoch: 05 December)

Event Time Altitude Azimuth Distance (km) Brightness Sun altitude
Rises 17:56:32 0° 353° (N) 3,721 7.1 -9.9°
Reaches altitude 10° 17:59:14 10° 0° (N) 2,769 6.4 -10.3°
Maximum altitude 18:05:15 43° 71° (ENE) 1,369 4.4 -11.3°
Drops below altitude 10° 18:11:13 10° 142° (SE) 2,745 6.0 -12.2°
Sets 18:13:52 0° 149° (SSE) 3,686 6.7 -12.6°
